Location: Bushrod
(6.3500°N, 10.7833°W)
Time: 19:08:37
(UTC+00:00)

Cosmos 2227 Rocket - Pass Details

Date: 17 September 2019
Orbit: 837 x 847 km, 71.0° (Epoch: 15 October)

Event Time Altitude Azimuth Distance (km) Brightness Sun altitude
Rises 19:04:27 0° 165° (SSE) 3,381 5.2 -6.4°
Reaches altitude 10° 19:07:36 10° 147° (SSE) 2,447 4.3 -7.2°
Maximum altitude 19:11:27 19° 104° (ESE) 1,899 3.4 -8.2°
Drops below altitude 10° 19:15:16 10° 61° (ENE) 2,447 4.1 -9.1°
Sets 19:18:24 0° 43° (NE) 3,382 5.0 -9.9°
